This demonstration page uses our WeatherBlox Daily Observations layout. Learn more.

Hourly Observations for May 13, 2018

Temp ( °F °C ) Dew Point ( °F °C ) Humidity (%) Winds ( mph kmh ) Pressure ( in mb ) Visibility ( mi km ) Precip ( " mm )
12:54 am 00:54 Cloudy with Mist and Fog 54 12.2 50 10 87 87 N 13 20 29.98 1015 6 9.65604 0 0
1:17 am 01:17 Cloudy with Mist and Fog 54 12.2 50 10 87 87 N 9 15 30 1016 6 9.65604 0 0
1:54 am 01:54 Cloudy with Mist and Fog 54 12.2 50 10 87 87 N 9 15 29.98 1015 5 8.0467 0 0
2:30 am 02:30 Cloudy with Mist and Fog 54 12.2 50 10 87 87 N 10 17 30 1016 5 8.0467 0 0
2:54 am 02:54 Cloudy with Mist and Fog 53 11.7 50 10 89 89 N 10 17 29.97 1015 5 8.0467 0 0
3:16 am 03:16 Cloudy with Mist and Fog 53 11.7 50 10 89 89 N 9 15 29.97 1015 5 8.0467 0 0
3:54 am 03:54 Cloudy with Mist and Fog 53 11.7 50 10 89 89 NNE 9 15 29.96 1015 5 8.0467 0 0
4:54 am 04:54 Cloudy with Mist and Fog 54 12.2 51 10.6 90 90 NNE 9 15 29.96 1015 4 6.43736 0 0
5:54 am 05:54 Cloudy with Mist and Fog 53 11.7 51 10.6 93 93 ENE 6 9 29.96 1015 4 6.43736 0 0
6:54 am 06:54 Cloudy with Mist and Fog 54 12.2 52 11.1 93 93 NE 6 9 29.98 1015 2 3.21868 0 0
7:21 am 07:21 Cloudy with Mist and Fog 54 12.2 52 11.1 93 93 NNE 13 20 29.94 1014 1.75 2.816345 0 0
7:49 am 07:49 Cloudy with Mist and Fog 54 12 52 11 94 94 NNW 10 17 30 1016 2 3.21868 0 0
7:54 am 07:54 Cloudy with Mist and Fog 55 12.8 52 11.1 90 90 NW 9 15 30.01 1016 2 3.21868 0 0
8:21 am 08:21 Cloudy with Mist and Fog 55 12.8 52 11.1 90 90 NNW 14 22 30.03 1017 2.5 4.02335 0 0
8:45 am 08:45 Cloudy with Mist and Fog 54 12.2 52 11.1 93 93 N 14 22 30 1016 2 3.21868 0 0
8:54 am 08:54 Cloudy with Mist and Fog 54 12.2 52 11.1 93 93 N 15 24 30.02 1017 2 3.21868 0 0
9:17 am 09:17 Cloudy with Mist and Fog 54 12.2 52 11.1 93 93 NNE 16 26 30.03 1017 3 4.82802 0 0
9:42 am 09:42 Cloudy 54 12.2 51 10.6 90 90 NNE 17 28 30.03 1017 7 11.26538 0 0
9:54 am 09:54 Cloudy 55 12.8 52 11.1 90 90 NNE 15 24 29.99 1016 8 12.87472 0 0
10:54 am 10:54 Cloudy 58 14.4 53 11.7 84 84 E 12 19 30 1016 8 12.87472 0 0
11:05 am 11:05 Cloudy 60 15.6 54 12.2 80 80 E 9 15 30 1016 8 12.87472 0 0
11:28 am 11:28 Cloudy 61 16.1 54 12.2 78 78 E 8 13 29.97 1015 7 11.26538 0 0
11:54 am 11:54 Cloudy 64 17.8 56 13.3 75 75 SE 12 19 29.98 1015 7 11.26538 0 0
12:54 pm 12:54 Mostly Cloudy with Haze 68 20 58 14.4 70 70 S 8 13 29.94 1014 6 9.65604 0 0
1:21 pm 13:21 Hazy 68 20 59 15 73 73 SSE 5 7 29.91 1013 5 8.0467 0 0
1:54 pm 13:54 Hazy 69 20.6 60 15.6 73 73 undefined N/A 29.94 1014 5 8.0467 0 0
2:16 pm 14:16 Mostly Cloudy with Haze 71 21.7 60 15.6 68 68 SSE 8 13 29.94 1014 6 9.65604 0 0
2:54 pm 14:54 Cloudy with Haze 73 22.8 61 16.1 66 66 undefined N/A 29.92 1013 5 8.0467 0 0
3:18 pm 15:18 Mostly Cloudy with Haze 74 23.3 61 16.1 64 64 SSE 6 9 29.88 1012 5 8.0467 0 0
3:54 pm 15:54 Cloudy with Haze 75 23.9 61 16.1 62 62 SSE 6 9 29.9 1012 6 9.65604 0 0
4:39 pm 16:39 Hazy 75 23.9 62 16.7 64 64 E 5 7 29.85 1011 6 9.65604 0 0
4:54 pm 16:54 Hazy 75 23.9 62 16.7 64 64 Calm 29.88 1012 6 9.65604 0 0
5:54 pm 17:54 Sunny 78 25.6 63 17.2 60 60 Calm 29.86 1011 7 11.26538 0 0
6:54 pm 18:54 Sunny 76 24.4 63 17.2 64 64 NNE 8 13 29.85 1011 7 11.26538 0 0
7:54 pm 19:54 Sunny 66 18.9 59 15 78 78 N 15 24 29.87 1011 8 12.87472 0 0
8:54 pm 20:54 Clear 63 17.2 58 14.4 84 84 N 10 17 29.89 1012 8 12.87472 0 0
9:54 pm 21:54 Clear 62 16.7 58 14.4 86 86 NNE 10 17 29.91 1013 7 11.26538 0 0
10:54 pm 22:54 Clear 61 16.1 57 13.9 87 87 NNE 9 15 29.92 1013 7 11.26538 0 0
11:54 pm 23:54 Clear with Mist and Fog 60 15.6 57 13.9 90 90 N 9 15 29.91 1013 6 9.65604 0 0

Powered by AerisWeather